Location: Malvern Link
(52.1333°N, 2.3000°W)
Time: 11:40:54
(UTC+00:00)

MOZHAYETS 4 - Pass Details

Date: 04 July 2022
Orbit: 660 x 679 km, 98.2° (Epoch: 10 August)

Event Time Altitude Azimuth Distance (km) Brightness Sun altitude
Rises 01:01:21 0° 125° (SE) 3,022 10.9 -14.3°
Reaches altitude 10° 01:03:57 10° 111° (ESE) 2,109 10.2 -14.2°
Maximum altitude 01:07:33 23° 59° (ENE) 1,416 9.9 -14.1°
Drops below altitude 10° 01:11:10 10° 8° (N) 2,111 11.7 -13.9°
Sets 01:13:45 0° 354° (N) 3,026 12.5 -13.8°
